Location: Neuvy Saint Sepulchre
(46.5953°N, 1.8122°E)
Time: 08:52:01
(UTC+02:00)

ISS - Pass Details

Date: 20 March 2024
Orbit: 413 x 419 km, 51.6° (Epoch: 13 April)

Event Time Altitude Azimuth Distance (km) Brightness Sun altitude
Rises 19:44:29 0° 261° (W) 2,356 1.8 -7.4°
Reaches altitude 10° 19:46:37 10° 267° (W) 1,497 0.6 -7.8°
Maximum altitude 19:49:53 47° 343° (NNW) 563 -2.9 -8.3°
Drops below altitude 10° 19:53:10 10° 59° (ENE) 1,507 -1.4 -8.9°
Enters shadow 19:53:40 - 61° (ENE) 1,704 -1.1 -9.0°
